Location: Eurasberg
(48.3353°N, 11.0839°E)
Time: 19:31:52
(UTC+00:00)

Cosmos 2228 Rocket - Pass Details

Date: 18 January 2026
Orbit: 612 x 647 km, 82.5° (Epoch: 13 February)

Event Time Altitude Azimuth Distance (km) Brightness Sun altitude
Exits shadow 05:05:47 - 353° (N) 2,946 6.4 -18.5°
Rises 05:05:54 0° 353° (N) 2,899 6.3 -18.5°
Reaches altitude 10° 05:08:10 10° 357° (N) 1,985 5.5 -18.1°
Maximum altitude 05:12:30 59° 78° (ENE) 710 3.6 -17.4°
Drops below altitude 10° 05:16:48 10° 158° (SSE) 1,964 6.1 -16.7°
Sets 05:19:02 0° 162° (SSE) 2,865 6.9 -16.3°
